Back to catalog

STARLINK-32943

AliveCommunicationsVLEO
NORAD 63023·PAYLOAD·🇺🇸 United States

Launched Feb 15, 2025 from Cape Canaveral Space Force Station

Loading…

Next Passes (next 24 hours)

TLE

FreshSource: CelesTrak SupGP

Epoch: Sep 14, 2026, 20:51 UTC

1 63023C 25032U   26257.86923611  .00002140  00000+0  77525-4 0  2577
2 63023  43.0017 347.5032 0001606 269.2852 119.8852 15.27575283    12

Track STARLINK-32943 in real time with AllMySat

Download on the App Store